Adrian, MI

3:33 PM EDT on August 20, 2017 (GMT -0400)
Lenawee County

Weather History for KADG - January, 2013

Change the Weather History Date:

Wednesday, January 2, 2013

  Actual Average Record
Temperature  
Mean Temperature 16 °F -  
Max Temperature 24 °F 34 °F 57 °F (2000)
Min Temperature 7 °F 16 °F -8 °F (1979)
Degree Days  
Heating Degree Days 50    
Moisture  
Dew Point 11 °F    
Average Humidity 80    
Maximum Humidity 92    
Minimum Humidity 71    
Precipitation  
Precipitation 0.00 in - - ()
Sea Level Pressure  
Sea Level Pressure 30.19 in    
Wind  
Wind Speed 6 mph (WSW)    
Max Wind Speed 10 mph    
Max Gust Speed -    
Visibility 10 miles    
Events      
Averages and records for this station are not official NWS values.
T = Trace of Precipitation, MM = Missing Value Source: NWS Daily Summary

Daily Weather History Graph

Daily Weather History Graph

Search for Another Location

Airport or City:

Trip Planner

Search our weather history database for the weather conditions in past years. The results will help you decide how hot, cold, wet, or windy it might be!

Date:

Astronomy

Jan. 02, 2013 Rise Set
Actual Time 8:04 AM EST 5:17 PM EST
Civil Twilight 7:32 AM EST 5:48 PM EST
Nautical Twilight 6:57 AM EST 6:23 PM EST
Astronomical Twilight 6:23 AM EST 6:57 PM EST
Moon 10:54 PM EST (1/2) 10:40 AM EST (1/2)
Length of Visible Light 10h 16m
Length of Day
9h 13m
Waning Gibbous, 75% of the Moon is Illuminated
Jan 2
Waning Gibbous
Jan 4
Last Quarter
Jan 11
New
Jan 18
First Quarter
Jan 26
Full

Hourly Weather History & Observations

Time (EST) Temp. Windchill Dew Point Humidity Pressure Visibility Wind Dir Wind Speed Gust Speed Precip Events Conditions
12:53 AM 17.1 °F 8.7 °F 10.0 °F 74% 30.14 in 10.0 mi WNW 5.8 mph - N/A   Mostly Cloudy
1:53 AM 16.0 °F 10.4 °F 9.0 °F 74% 30.13 in 10.0 mi WNW 3.5 mph - N/A   Scattered Clouds
2:53 AM 15.1 °F 7.7 °F 9.0 °F 77% 30.15 in 10.0 mi WSW 4.6 mph - N/A   Mostly Cloudy
3:09 AM 14.0 °F 6.5 °F 8.6 °F 79% 30.10 in 10.0 mi WSW 4.6 mph - N/A   Scattered Clouds
3:53 AM 12.0 °F 4.1 °F 8.1 °F 84% 30.16 in 10.0 mi West 4.6 mph - N/A   Clear
4:53 AM 10.9 °F 4.7 °F 7.0 °F 84% 30.14 in 10.0 mi WSW 3.5 mph - N/A   Clear
5:53 AM 10.0 °F 0.4 °F 7.0 °F 87% 30.17 in 10.0 mi WSW 5.8 mph - N/A   Clear
6:43 AM 8.6 °F -1.3 °F 6.8 °F 92% 30.13 in 10.0 mi WSW 5.8 mph - N/A   Mostly Cloudy
7:39 AM 8.6 °F 0.1 °F 5.0 °F 85% 30.13 in 10.0 mi West 4.6 mph - N/A   Partly Cloudy
7:53 AM 8.1 °F 1.4 °F 5.0 °F 87% 30.18 in 10.0 mi West 3.5 mph - N/A   Clear
8:53 AM 7.0 °F -3.3 °F 5.0 °F 92% 30.19 in 10.0 mi WSW 5.8 mph - N/A   Clear
9:17 AM 8.6 °F 0.1 °F 6.8 °F 92% 30.15 in 10.0 mi WSW 4.6 mph - N/A   Mostly Cloudy
9:53 AM 12.0 °F 4.1 °F 8.1 °F 84% 30.21 in 10.0 mi WSW 4.6 mph - N/A   Overcast
10:53 AM 17.1 °F 8.7 °F 12.0 °F 81% 30.24 in 10.0 mi WSW 5.8 mph - N/A   Overcast
11:53 AM 21.0 °F 14.6 °F 14.0 °F 74% 30.23 in 10.0 mi West 4.6 mph - N/A   Overcast
12:53 PM 24.1 °F 19.7 °F 16.0 °F 71% 30.21 in 10.0 mi WNW 3.5 mph - N/A   Overcast
1:53 PM 23.0 °F 17.0 °F 16.0 °F 74% 30.19 in 10.0 mi SSW 4.6 mph - N/A   Overcast
2:53 PM 24.1 °F 18.2 °F 17.1 °F 75% 30.19 in 10.0 mi SW 4.6 mph - N/A   Overcast
3:53 PM 21.9 °F 11.7 °F 16.0 °F 78% 30.20 in 10.0 mi SW 9.2 mph - N/A   Overcast
4:53 PM 21.9 °F 12.5 °F 16.0 °F 78% 30.21 in 10.0 mi SW 8.1 mph - N/A   Overcast
5:53 PM 21.9 °F 11.7 °F 15.1 °F 75% 30.23 in 10.0 mi SW 9.2 mph - N/A   Overcast
6:53 PM 21.0 °F 9.9 °F 15.1 °F 78% 30.25 in 10.0 mi SW 10.4 mph - N/A   Overcast
7:53 PM 21.0 °F 11.4 °F 16.0 °F 81% 30.25 in 9.0 mi WSW 8.1 mph - N/A   Overcast
8:53 PM 21.0 °F 12.4 °F 16.0 °F 81% 30.23 in 9.0 mi WSW 6.9 mph - N/A   Overcast
9:53 PM 21.0 °F 9.9 °F 16.0 °F 81% 30.23 in 10.0 mi SW 10.4 mph - N/A   Overcast
10:53 PM 18.0 °F 6.1 °F 10.9 °F 74% 30.23 in 10.0 mi SW 10.4 mph - N/A   Overcast
11:10 PM 15.8 °F 5.1 °F 8.6 °F 73% 30.18 in 10.0 mi SW 8.1 mph - N/A   Scattered Clouds
11:53 PM 14.0 °F 2.9 °F 7.0 °F 74% 30.22 in 10.0 mi SW 8.1 mph - N/A   Clear